TimeCST,TemperatureF,Dew PointF,Humidity,Sea Level PressureIn,VisibilityMPH,Wind Direction,Wind SpeedMPH,Gust SpeedMPH,PrecipitationIn,Events,Conditions,WindDirDegrees,DateUTC
12:15 AM,41.0,32.0,70,29.84,10.0,NW,9.2,-,N/A,,Overcast,320,2013-03-05 06:15:00
12:35 AM,39.2,32.0,75,29.85,10.0,NW,11.5,17.3,N/A,,Overcast,310,2013-03-05 06:35:00
12:55 AM,37.4,32.0,81,29.85,10.0,WNW,13.8,-,N/A,,Overcast,300,2013-03-05 06:55:00
1:15 AM,37.4,30.2,75,29.85,10.0,NW,12.7,17.3,N/A,,Overcast,310,2013-03-05 07:15:00
1:35 AM,37.4,30.2,75,29.87,10.0,WNW,11.5,-,N/A,,Overcast,300,2013-03-05 07:35:00
1:55 AM,37.4,30.2,75,29.89,10.0,WNW,8.1,16.1,N/A,,Overcast,290,2013-03-05 07:55:00
2:15 AM,37.4,30.2,75,29.88,10.0,WNW,9.2,-,N/A,,Overcast,300,2013-03-05 08:15:00
2:35 AM,35.6,30.2,81,29.89,10.0,West,15.0,18.4,N/A,,Overcast,280,2013-03-05 08:35:00
2:55 AM,35.6,30.2,81,29.89,10.0,WNW,11.5,-,N/A,,Overcast,290,2013-03-05 08:55:00
3:15 AM,35.6,30.2,81,29.91,10.0,WNW,10.4,-,N/A,,Overcast,290,2013-03-05 09:15:00
3:35 AM,35.6,30.2,81,29.92,10.0,West,16.1,19.6,N/A,,Overcast,280,2013-03-05 09:35:00
3:55 AM,35.6,30.2,81,29.94,10.0,West,12.7,21.9,N/A,,Overcast,280,2013-03-05 09:55:00
4:15 AM,33.8,32.0,93,29.94,5.0,WNW,10.4,-,N/A,Rain,Rain,290,2013-03-05 10:15:00
4:35 AM,33.8,32.0,93,29.95,7.0,WNW,16.1,20.7,N/A,Rain,Light Rain,290,2013-03-05 10:35:00
4:55 AM,33.8,32.0,93,29.97,5.0,West,16.1,23.0,N/A,Rain,Light Rain,280,2013-03-05 10:55:00
5:15 AM,33.8,32.0,93,29.99,7.0,West,15.0,20.7,N/A,,Drizzle,280,2013-03-05 11:15:00
5:35 AM,33.8,32.0,93,29.99,5.0,WNW,20.7,26.5,N/A,Snow,Light Snow,290,2013-03-05 11:35:00
5:55 AM,33.8,32.0,93,29.99,5.0,WNW,15.0,26.5,N/A,Snow,Light Snow,290,2013-03-05 11:55:00
6:15 AM,33.8,32.0,93,29.99,4.0,WNW,17.3,21.9,N/A,Snow,Light Snow,290,2013-03-05 12:15:00
6:35 AM,33.8,32.0,93,30.00,7.0,WNW,16.1,25.3,N/A,Snow,Light Snow,290,2013-03-05 12:35:00
7:35 AM,32.0,30.2,93,30.01,10.0,WNW,13.8,-,N/A,,Mostly Cloudy,290,2013-03-05 13:35:00
7:55 AM,33.8,28.4,81,30.03,10.0,West,15.0,20.7,N/A,,Mostly Cloudy,280,2013-03-05 13:55:00
8:15 AM,33.8,28.4,81,30.04,10.0,West,16.1,27.6,N/A,,Overcast,280,2013-03-05 14:15:00
8:35 AM,33.8,28.4,81,30.04,10.0,West,18.4,26.5,N/A,,Mostly Cloudy,270,2013-03-05 14:35:00
8:55 AM,33.8,26.6,75,30.05,10.0,West,18.4,-,N/A,,Overcast,280,2013-03-05 14:55:00
9:15 AM,33.8,23.0,65,30.06,10.0,West,23.0,31.1,N/A,,Overcast,280,2013-03-05 15:15:00
9:35 AM,33.8,23.0,65,30.06,10.0,WNW,16.1,31.1,N/A,,Mostly Cloudy,300,2013-03-05 15:35:00
9:55 AM,33.8,23.0,65,30.06,10.0,WNW,18.4,29.9,N/A,,Overcast,290,2013-03-05 15:55:00
10:15 AM,33.8,23.0,65,30.07,10.0,West,21.9,28.8,N/A,,Mostly Cloudy,280,2013-03-05 16:15:00
10:35 AM,33.8,23.0,65,30.08,10.0,West,21.9,28.8,N/A,,Mostly Cloudy,280,2013-03-05 16:35:00
10:55 AM,32.0,21.2,64,30.08,10.0,WNW,16.1,29.9,N/A,,Scattered Clouds,290,2013-03-05 16:55:00
11:15 AM,33.8,21.2,60,30.09,10.0,West,20.7,31.1,N/A,,Mostly Cloudy,270,2013-03-05 17:15:00
11:35 AM,33.8,23.0,65,30.09,10.0,WNW,17.3,27.6,N/A,,Mostly Cloudy,290,2013-03-05 17:35:00
11:55 AM,33.8,21.2,60,30.09,10.0,WSW,24.2,31.1,N/A,,Overcast,250,2013-03-05 17:55:00
12:15 PM,33.8,21.2,60,30.10,10.0,West,21.9,31.1,N/A,,Mostly Cloudy,280,2013-03-05 18:15:00
12:35 PM,33.8,21.2,60,30.10,10.0,West,24.2,33.4,N/A,,Scattered Clouds,280,2013-03-05 18:35:00
12:55 PM,33.8,21.2,60,30.11,10.0,West,25.3,31.1,N/A,,Mostly Cloudy,260,2013-03-05 18:55:00
1:15 PM,33.8,21.2,60,30.11,10.0,West,24.2,34.5,N/A,,Mostly Cloudy,280,2013-03-05 19:15:00
1:35 PM,33.8,21.2,60,30.10,10.0,West,19.6,34.5,N/A,,Mostly Cloudy,270,2013-03-05 19:35:00
2:15 PM,33.8,21.2,60,30.12,10.0,West,21.9,33.4,N/A,,Overcast,260,2013-03-05 20:15:00
2:35 PM,33.8,21.2,60,30.12,10.0,West,18.4,32.2,N/A,,Overcast,280,2013-03-05 20:35:00
2:55 PM,33.8,21.2,60,30.13,10.0,West,17.3,27.6,N/A,,Overcast,270,2013-03-05 20:55:00
3:15 PM,33.8,21.2,60,30.13,10.0,West,17.3,39.1,N/A,,Mostly Cloudy,270,2013-03-05 21:15:00
3:35 PM,33.8,21.2,60,30.14,10.0,West,21.9,29.9,N/A,,Mostly Cloudy,280,2013-03-05 21:35:00
3:55 PM,33.8,21.2,60,30.14,10.0,West,20.7,29.9,N/A,,Overcast,270,2013-03-05 21:55:00
4:15 PM,33.8,21.2,60,30.14,10.0,West,24.2,32.2,N/A,,Overcast,270,2013-03-05 22:15:00
4:35 PM,33.8,21.2,60,30.15,10.0,West,26.5,32.2,N/A,,Overcast,280,2013-03-05 22:35:00
4:55 PM,33.8,21.2,60,30.15,10.0,West,15.0,25.3,N/A,,Overcast,280,2013-03-05 22:55:00
5:15 PM,33.8,21.2,60,30.16,10.0,West,15.0,25.3,N/A,,Overcast,280,2013-03-05 23:15:00
5:35 PM,33.8,21.2,60,30.16,10.0,West,15.0,26.5,N/A,,Overcast,280,2013-03-05 23:35:00
5:55 PM,33.8,21.2,60,30.18,10.0,West,24.2,32.2,N/A,,Overcast,280,2013-03-05 23:55:00
6:15 PM,33.8,21.2,60,30.19,10.0,WNW,20.7,32.2,N/A,,Overcast,290,2013-03-06 00:15:00
6:35 PM,33.8,21.2,60,30.19,10.0,WNW,18.4,29.9,N/A,,Overcast,290,2013-03-06 00:35:00
6:55 PM,32.0,19.4,60,30.19,10.0,WNW,21.9,33.4,N/A,,Overcast,290,2013-03-06 00:55:00
7:15 PM,32.0,19.4,60,30.20,10.0,WNW,23.0,34.5,N/A,,Overcast,290,2013-03-06 01:15:00
7:35 PM,32.0,19.4,60,30.20,10.0,WNW,24.2,29.9,N/A,,Overcast,290,2013-03-06 01:35:00
7:55 PM,32.0,19.4,60,30.21,10.0,WNW,21.9,33.4,N/A,,Overcast,290,2013-03-06 01:55:00
8:15 PM,32.0,21.2,64,30.22,10.0,WNW,18.4,27.6,N/A,,Overcast,300,2013-03-06 02:15:00
8:35 PM,32.0,21.2,64,30.22,10.0,WNW,20.7,32.2,N/A,,Overcast,300,2013-03-06 02:35:00
8:55 PM,32.0,21.2,64,30.22,10.0,WNW,10.4,24.2,N/A,,Overcast,300,2013-03-06 02:55:00
9:15 PM,32.0,21.2,64,30.23,10.0,WNW,12.7,25.3,N/A,,Overcast,290,2013-03-06 03:15:00
9:35 PM,32.0,21.2,64,30.24,10.0,WNW,16.1,25.3,N/A,,Overcast,290,2013-03-06 03:35:00
9:55 PM,32.0,21.2,64,30.25,10.0,WNW,21.9,28.8,N/A,,Overcast,290,2013-03-06 03:55:00
10:15 PM,32.0,21.2,64,30.26,10.0,WNW,21.9,31.1,N/A,,Overcast,300,2013-03-06 04:15:00
10:35 PM,32.0,21.2,64,30.26,10.0,WNW,15.0,28.8,N/A,,Overcast,290,2013-03-06 04:35:00
10:55 PM,30.2,21.2,69,30.27,10.0,WNW,15.0,23.0,N/A,,Overcast,290,2013-03-06 04:55:00
11:15 PM,30.2,21.2,69,30.27,10.0,WNW,16.1,25.3,N/A,,Overcast,300,2013-03-06 05:15:00
11:35 PM,30.2,21.2,69,30.27,10.0,WNW,15.0,23.0,N/A,,Overcast,290,2013-03-06 05:35:00
11:55 PM,30.2,19.4,64,30.27,10.0,WNW,16.1,27.6,N/A,,Overcast,290,2013-03-06 05:55:00